DAL502 KFLL-KATL

Flight info

Callsign DAL502
Flight time 1h 30m
Altitude 34000
Route FRSBE2 STYMY Q77 MJAMS/N0439F350 Q77 SHRKS/N0435F340 LAIRI LARZZ JJEDI4
Aircraft A320/M-SDE3FGHIRWY/LB1

Departure

Time 2026-05-04 01:03
Airport Fort Lauderdale Hollywood International Airport (KFLL)

Arrival

Time 2026-05-04 02:33
Airport Hartsfield Jackson Atlanta International Airport (KATL)
Time Latitude Longitude Altitude Speed Heading
2026-05-04 00:11 26.06888 -80.14256 19 ft 0 kts
2026-05-04 00:51 26.06870 -80.14255 20 ft 4 kts
2026-05-04 00:51 26.06844 -80.14257 21 ft 4 kts
2026-05-04 00:51 26.06817 -80.14259 20 ft 4 kts 355°
2026-05-04 00:51 26.06793 -80.14254 19 ft 1 kts 344°
2026-05-04 00:52 26.06792 -80.14253 19 ft 0 kts 344°
2026-05-04 00:54 26.06799 -80.14268 19 ft 1 kts 280°
2026-05-04 00:54 26.06798 -80.14270 19 ft 1 kts 262°
2026-05-04 00:54 26.06774 -80.14369 18 ft 21 kts 259°
2026-05-04 00:54 26.06756 -80.14474 19 ft 20 kts 265°
2026-05-04 00:55 26.06766 -80.14665 16 ft 17 kts 270°
2026-05-04 00:55 26.06766 -80.14743 19 ft 13 kts 270°
2026-05-04 00:55 26.06767 -80.14820 21 ft 11 kts 271°
2026-05-04 00:55 26.06769 -80.14964 22 ft 26 kts 271°
2026-05-04 00:56 26.06801 -80.15125 23 ft 17 kts 316°
2026-05-04 00:56 26.06917 -80.15129 24 ft 17 kts 359°
2026-05-04 00:56 26.07039 -80.15129 24 ft 18 kts 360°
2026-05-04 00:56 26.07168 -80.15126 21 ft 20 kts
2026-05-04 00:57 26.07309 -80.15127 20 ft 21 kts 356°
2026-05-04 00:57 26.07451 -80.15125 20 ft 15 kts
2026-05-04 00:57 26.07488 -80.15210 18 ft 15 kts 273°
2026-05-04 00:57 26.07491 -80.15391 16 ft 30 kts 272°
2026-05-04 00:58 26.07492 -80.15618 19 ft 28 kts 270°
2026-05-04 00:58 26.07492 -80.15821 20 ft 25 kts 270°
2026-05-04 00:58 26.07493 -80.15997 24 ft 21 kts 270°
2026-05-04 00:58 26.07494 -80.16142 25 ft 17 kts 271°
2026-05-04 00:59 26.07496 -80.16272 24 ft 16 kts 271°
2026-05-04 00:59 26.07498 -80.16390 24 ft 14 kts 270°
2026-05-04 00:59 26.07498 -80.16483 24 ft 9 kts 270°
2026-05-04 00:59 26.07504 -80.16530 25 ft 4 kts 294°
2026-05-04 01:00 26.07512 -80.16543 24 ft 2 kts 308°
2026-05-04 01:00 26.07560 -80.16563 24 ft 8 kts 354°
2026-05-04 01:00 26.07580 -80.16564 23 ft 0 kts 359°
2026-05-04 01:01 26.07581 -80.16564 23 ft 1 kts 359°
2026-05-04 01:01 26.07635 -80.16562 23 ft 11 kts
2026-05-04 01:02 26.07689 -80.16537 23 ft 6 kts 57°
2026-05-04 01:02 26.07693 -80.16517 26 ft 1 kts 80°
2026-05-04 01:02 26.07695 -80.16485 24 ft 0 kts 89°
2026-05-04 01:02 26.07695 -80.16436 26 ft 32 kts 90°
2026-05-04 01:03 26.07692 -80.15859 24 ft 115 kts 90°
2026-05-04 01:03 26.07685 -80.14716 94 ft 170 kts 91°
2026-05-04 01:03 26.07621 -80.13395 877 ft 174 kts 88°
2026-05-04 01:03 26.07652 -80.12045 1786 ft 176 kts 86°
2026-05-04 01:04 26.07715 -80.10614 2437 ft 196 kts 86°
2026-05-04 01:04 26.08069 -80.09065 2988 ft 221 kts 65°
2026-05-04 01:04 26.08945 -80.07552 3551 ft 245 kts 42°
2026-05-04 01:04 26.10460 -80.06541 4222 ft 266 kts 19°
2026-05-04 01:05 26.12238 -80.05819 5126 ft 276 kts 17°
2026-05-04 01:05 26.14094 -80.05186 5819 ft 282 kts
2026-05-04 01:05 26.16047 -80.05080 6566 ft 282 kts 351°
2026-05-04 01:05 26.17955 -80.05550 7328 ft 280 kts 337°
2026-05-04 01:06 26.19797 -80.06291 8122 ft 282 kts 333°
2026-05-04 01:06 26.21474 -80.07400 8878 ft 280 kts 316°
2026-05-04 01:06 26.22794 -80.08970 9668 ft 277 kts 301°
2026-05-04 01:06 26.23690 -80.10874 10286 ft 283 kts 289°
2026-05-04 01:07 26.24443 -80.12972 10634 ft 299 kts 289°
2026-05-04 01:07 26.25215 -80.15152 11259 ft 305 kts 290°
2026-05-04 01:07 26.26233 -80.17254 11943 ft 311 kts 298°
2026-05-04 01:07 26.27392 -80.19303 12642 ft 315 kts 298°
2026-05-04 01:08 26.28569 -80.21375 13332 ft 317 kts 298°
2026-05-04 01:08 26.29756 -80.23460 14005 ft 320 kts 298°
2026-05-04 01:08 26.30955 -80.25563 14615 ft 322 kts 298°
2026-05-04 01:08 26.32159 -80.27676 15215 ft 325 kts 298°
2026-05-04 01:09 26.33375 -80.29816 15827 ft 327 kts 298°
2026-05-04 01:09 26.34593 -80.31963 16434 ft 330 kts 297°
2026-05-04 01:09 26.35822 -80.34137 17026 ft 332 kts 297°
2026-05-04 01:09 26.37058 -80.36326 17620 ft 335 kts 297°
2026-05-04 01:10 26.38305 -80.38528 18202 ft 338 kts 297°
2026-05-04 01:10 26.39564 -80.40750 18717 ft 340 kts 297°
2026-05-04 01:10 26.40833 -80.42985 19220 ft 342 kts 296°
2026-05-04 01:10 26.42108 -80.45236 19737 ft 344 kts 296°
2026-05-04 01:11 26.43386 -80.47497 20247 ft 346 kts 296°
2026-05-04 01:11 26.44673 -80.49774 20754 ft 348 kts 296°
2026-05-04 01:11 26.45966 -80.52062 21263 ft 350 kts 297°
2026-05-04 01:11 26.47482 -80.54223 21768 ft 360 kts 307°
2026-05-04 01:12 26.49418 -80.56061 22253 ft 372 kts 318°
2026-05-04 01:12 26.51740 -80.57453 22739 ft 387 kts 330°
2026-05-04 01:12 26.54352 -80.58360 23208 ft 396 kts 335°
2026-05-04 01:12 26.57017 -80.59193 23685 ft 399 kts 335°
2026-05-04 01:13 26.59697 -80.60037 24063 ft 402 kts 334°
2026-05-04 01:13 26.62400 -80.60892 24468 ft 404 kts 334°
2026-05-04 01:13 26.65110 -80.61749 24873 ft 406 kts 334°
2026-05-04 01:13 26.67838 -80.62613 25268 ft 408 kts 334°
2026-05-04 01:14 26.70571 -80.63484 25654 ft 410 kts 334°
2026-05-04 01:14 26.73323 -80.64366 26042 ft 412 kts 334°
2026-05-04 01:14 26.76081 -80.65253 26427 ft 414 kts 334°
2026-05-04 01:14 26.78858 -80.66142 26807 ft 416 kts 334°
2026-05-04 01:15 26.81653 -80.67032 27182 ft 418 kts 334°
2026-05-04 01:15 26.84458 -80.67922 27547 ft 420 kts 334°
2026-05-04 01:15 26.87274 -80.68817 27955 ft 422 kts 334°
2026-05-04 01:15 26.90106 -80.69717 28305 ft 424 kts 334°
2026-05-04 01:16 26.92942 -80.70649 28654 ft 424 kts 332°
2026-05-04 01:16 26.95753 -80.71663 29008 ft 424 kts 331°
2026-05-04 01:16 26.98545 -80.72732 29335 ft 425 kts 330°
2026-05-04 01:16 27.01344 -80.73834 29667 ft 427 kts 330°
2026-05-04 01:17 27.04155 -80.74944 29998 ft 429 kts 330°
2026-05-04 01:17 27.06977 -80.76045 30288 ft 431 kts 330°
2026-05-04 01:17 27.09820 -80.77138 30571 ft 431 kts 330°
2026-05-04 01:17 27.12653 -80.78210 30881 ft 431 kts 330°
2026-05-04 01:18 27.15512 -80.79292 31008 ft 437 kts 330°
2026-05-04 01:18 27.18404 -80.80384 31243 ft 440 kts 330°
2026-05-04 01:18 27.21315 -80.81484 31495 ft 442 kts 330°
2026-05-04 01:18 27.24228 -80.82583 31806 ft 442 kts 330°
2026-05-04 01:19 27.27142 -80.83684 32115 ft 442 kts 330°
2026-05-04 01:19 27.30055 -80.84788 32416 ft 442 kts 330°
2026-05-04 01:19 27.32968 -80.85898 32715 ft 442 kts 329°
2026-05-04 01:19 27.35864 -80.87044 33011 ft 441 kts 328°
2026-05-04 01:20 27.38746 -80.88225 33307 ft 441 kts 327°
2026-05-04 01:20 27.41622 -80.89430 33620 ft 440 kts 327°
2026-05-04 01:20 27.44493 -80.90638 33907 ft 441 kts 327°
2026-05-04 01:20 27.47365 -80.91840 34030 ft 437 kts 327°
2026-05-04 01:21 27.50173 -80.92989 34033 ft 421 kts 327°
2026-05-04 01:21 27.52888 -80.94082 34034 ft 410 kts 327°
2026-05-04 01:21 27.55550 -80.95165 34041 ft 405 kts 326°
2026-05-04 01:22 27.60810 -80.97356 34041 ft 402 kts 326°
2026-05-04 01:22 27.66049 -80.99551 34045 ft 402 kts 326°
2026-05-04 01:23 27.71300 -81.01724 34046 ft 402 kts 326°
2026-05-04 01:23 27.76551 -81.03894 34043 ft 402 kts 326°
2026-05-04 01:24 27.81800 -81.06061 34082 ft 401 kts 326°
2026-05-04 01:24 27.87075 -81.08246 34071 ft 401 kts 325°
2026-05-04 01:25 27.92303 -81.10418 34065 ft 401 kts 325°
2026-05-04 01:25 27.97534 -81.12591 34056 ft 400 kts 325°
2026-05-04 01:26 28.02753 -81.14768 34054 ft 400 kts 325°
2026-05-04 01:26 28.07850 -81.17128 34048 ft 392 kts 321°
2026-05-04 01:27 28.12748 -81.19722 34074 ft 390 kts 319°
2026-05-04 01:27 28.17685 -81.22355 34083 ft 391 kts 320°
2026-05-04 01:28 28.22641 -81.24930 34067 ft 392 kts 320°
2026-05-04 01:28 28.27611 -81.27483 34071 ft 392 kts 320°
2026-05-04 01:29 28.32577 -81.30039 34089 ft 392 kts 320°
2026-05-04 01:29 28.37509 -81.32580 34089 ft 391 kts 321°
2026-05-04 01:30 28.42501 -81.35128 34099 ft 390 kts 320°
2026-05-04 01:30 28.47451 -81.37650 34087 ft 389 kts 320°
2026-05-04 01:31 28.52386 -81.40178 34081 ft 389 kts 320°
2026-05-04 01:31 28.57314 -81.42709 34075 ft 389 kts 320°
2026-05-04 01:32 28.62256 -81.45241 34070 ft 390 kts 320°
2026-05-04 01:32 28.67201 -81.47776 34069 ft 390 kts 320°
2026-05-04 01:33 28.72139 -81.50310 34081 ft 388 kts 321°
2026-05-04 01:33 28.77048 -81.52832 34070 ft 387 kts 320°
2026-05-04 01:34 28.81955 -81.55364 34062 ft 387 kts 320°
2026-05-04 01:34 28.86038 -81.57473 34053 ft 387 kts 320°
2026-05-04 01:35 28.90952 -81.60008 34058 ft 391 kts 323°
2026-05-04 01:35 28.93620 -81.60933 34054 ft 412 kts 335°
2026-05-04 01:35 28.96529 -81.61298 34056 ft 424 kts 341°
2026-05-04 01:36 29.02410 -81.61816 34108 ft 424 kts 342°
2026-05-04 01:36 29.08331 -81.62352 34095 ft 423 kts 342°
2026-05-04 01:37 29.14162 -81.62881 34091 ft 423 kts 342°
2026-05-04 01:37 29.20026 -81.63417 34084 ft 423 kts 341°
2026-05-04 01:38 29.25891 -81.63957 34084 ft 423 kts 341°
2026-05-04 01:38 29.31756 -81.64499 34123 ft 422 kts 342°
2026-05-04 01:39 29.37607 -81.65035 34117 ft 422 kts 342°
2026-05-04 01:39 29.43452 -81.65563 34110 ft 421 kts 342°
2026-05-04 01:40 29.49286 -81.66098 34136 ft 420 kts 343°
2026-05-04 01:40 29.55099 -81.66637 34128 ft 418 kts 343°
2026-05-04 01:41 29.60879 -81.67173 34104 ft 414 kts 343°
2026-05-04 01:41 29.66602 -81.67700 34090 ft 412 kts 343°
2026-05-04 01:42 29.72323 -81.68233 34095 ft 413 kts 343°
2026-05-04 01:42 29.78053 -81.68763 34091 ft 413 kts 343°
2026-05-04 01:43 29.83792 -81.69294 34090 ft 413 kts 343°
2026-05-04 01:43 29.89562 -81.69834 34124 ft 413 kts 343°
2026-05-04 01:44 29.95295 -81.70366 34121 ft 413 kts 343°
2026-05-04 01:44 30.01027 -81.70905 34104 ft 413 kts 343°
2026-05-04 01:45 30.06721 -81.71437 34099 ft 413 kts 343°
2026-05-04 01:45 30.15356 -81.72235 34140 ft 413 kts 344°
2026-05-04 01:46 30.21089 -81.72771 34124 ft 413 kts 344°
2026-05-04 01:46 30.26822 -81.73303 34140 ft 413 kts 344°
2026-05-04 01:47 30.32552 -81.73841 34136 ft 413 kts 344°
2026-05-04 01:47 30.38286 -81.74380 34107 ft 413 kts 344°
2026-05-04 01:48 30.43974 -81.74915 34088 ft 413 kts 344°
2026-05-04 01:48 30.49699 -81.75454 34087 ft 413 kts 344°
2026-05-04 01:49 30.55431 -81.75995 34083 ft 413 kts 344°
2026-05-04 01:49 30.61123 -81.76658 34091 ft 404 kts 336°
2026-05-04 01:50 30.63785 -81.77583 33977 ft 395 kts 325°
2026-05-04 01:50 30.66255 -81.78923 33849 ft 392 kts 323°
2026-05-04 01:50 30.68706 -81.80307 33718 ft 391 kts 322°
2026-05-04 01:50 30.71148 -81.81710 33644 ft 391 kts 322°
2026-05-04 01:51 30.73578 -81.83121 33518 ft 391 kts 322°
2026-05-04 01:51 30.76010 -81.84539 33390 ft 391 kts 322°
2026-05-04 01:51 30.78439 -81.85953 33262 ft 390 kts 322°
2026-05-04 01:51 30.80863 -81.87359 33146 ft 390 kts 322°
2026-05-04 01:52 30.83291 -81.88767 32970 ft 389 kts 322°
2026-05-04 01:52 30.85706 -81.90169 32844 ft 388 kts 322°
2026-05-04 01:52 30.88125 -81.91574 32714 ft 388 kts 322°
2026-05-04 01:52 30.90534 -81.92974 32586 ft 387 kts 322°
2026-05-04 01:53 30.92976 -81.94390 32453 ft 386 kts 322°
2026-05-04 01:53 30.95346 -81.95764 32350 ft 386 kts 322°
2026-05-04 01:53 30.97780 -81.97177 32221 ft 385 kts 322°
2026-05-04 01:53 31.00176 -81.98568 32120 ft 385 kts 323°
2026-05-04 01:54 31.02542 -81.99946 31995 ft 385 kts 323°
2026-05-04 01:54 31.04936 -82.01341 31867 ft 385 kts 323°
2026-05-04 01:54 31.07330 -82.02736 31723 ft 384 kts 323°
2026-05-04 01:54 31.09751 -82.04146 31582 ft 384 kts 323°
2026-05-04 01:55 31.12105 -82.05520 31475 ft 383 kts 323°
2026-05-04 01:55 31.14521 -82.06934 31349 ft 383 kts 323°
2026-05-04 01:55 31.16868 -82.08309 31225 ft 382 kts 323°
2026-05-04 01:55 31.19271 -82.09718 31104 ft 382 kts 323°
2026-05-04 01:56 31.21614 -82.11091 30993 ft 381 kts 323°
2026-05-04 01:56 31.24003 -82.12488 30870 ft 381 kts 323°
2026-05-04 01:56 31.26370 -82.13870 30750 ft 380 kts 323°
2026-05-04 01:56 31.28733 -82.15252 30669 ft 380 kts 323°
2026-05-04 01:57 31.31096 -82.16637 30549 ft 380 kts 323°
2026-05-04 01:57 31.33463 -82.18028 30428 ft 380 kts 323°
2026-05-04 01:57 31.35824 -82.19418 30310 ft 380 kts 323°
2026-05-04 01:57 31.38181 -82.20805 30184 ft 379 kts 323°
2026-05-04 01:58 31.40542 -82.22189 30048 ft 379 kts 323°
2026-05-04 01:58 31.42895 -82.23570 29906 ft 378 kts 323°
2026-05-04 01:58 31.45241 -82.24949 29766 ft 377 kts 323°
2026-05-04 01:58 31.47579 -82.26327 29624 ft 376 kts 323°
2026-05-04 01:59 31.49916 -82.27703 29486 ft 375 kts 323°
2026-05-04 01:59 31.52245 -82.29073 29344 ft 374 kts 324°
2026-05-04 01:59 31.54573 -82.30440 29205 ft 374 kts 324°
2026-05-04 01:59 31.56893 -82.31803 29087 ft 373 kts 324°
2026-05-04 02:00 31.59214 -82.33170 28939 ft 373 kts 324°
2026-05-04 02:00 31.61533 -82.34540 28775 ft 373 kts 324°
2026-05-04 02:00 31.63849 -82.35909 28613 ft 372 kts 324°
2026-05-04 02:00 31.66157 -82.37273 28453 ft 371 kts 324°
2026-05-04 02:01 31.68461 -82.38638 28293 ft 370 kts 324°
2026-05-04 02:01 31.70757 -82.39998 28156 ft 369 kts 324°
2026-05-04 02:01 31.73047 -82.41355 27984 ft 368 kts 324°
2026-05-04 02:01 31.75271 -82.42675 27829 ft 367 kts 325°
2026-05-04 02:02 31.77549 -82.44026 27672 ft 366 kts 325°
2026-05-04 02:02 31.79817 -82.45370 27517 ft 365 kts 325°
2026-05-04 02:02 31.82082 -82.46714 27363 ft 364 kts 325°
2026-05-04 02:02 31.84337 -82.48054 27212 ft 363 kts 325°
2026-05-04 02:03 31.86590 -82.49393 27090 ft 362 kts 326°
2026-05-04 02:03 31.88828 -82.50718 26953 ft 360 kts 326°
2026-05-04 02:03 31.91065 -82.52045 26803 ft 359 kts 326°
2026-05-04 02:03 31.93284 -82.53365 26654 ft 358 kts 326°
2026-05-04 02:04 31.95498 -82.54701 26505 ft 355 kts 322°
2026-05-04 02:04 31.97480 -82.56341 26357 ft 345 kts 311°
2026-05-04 02:04 31.99286 -82.58190 26228 ft 344 kts 312°
2026-05-04 02:04 32.01095 -82.60036 26103 ft 343 kts 312°
2026-05-04 02:05 32.02897 -82.61872 25977 ft 343 kts 312°
2026-05-04 02:05 32.04700 -82.63707 25853 ft 342 kts 312°
2026-05-04 02:05 32.06498 -82.65539 25729 ft 341 kts 312°
2026-05-04 02:05 32.08286 -82.67367 25608 ft 340 kts 312°
2026-05-04 02:06 32.10077 -82.69195 25490 ft 340 kts 312°
2026-05-04 02:06 32.11865 -82.71019 25373 ft 339 kts 312°
2026-05-04 02:06 32.13644 -82.72837 25250 ft 339 kts 312°
2026-05-04 02:06 32.15419 -82.74657 25154 ft 338 kts 313°
2026-05-04 02:07 32.17220 -82.76506 24744 ft 349 kts 313°
2026-05-04 02:07 32.19083 -82.78424 23904 ft 361 kts 314°
2026-05-04 02:07 32.20952 -82.80339 23813 ft 347 kts 315°
2026-05-04 02:07 32.22773 -82.82196 23969 ft 345 kts 315°
2026-05-04 02:08 32.24588 -82.84050 24017 ft 345 kts 315°
2026-05-04 02:08 32.26399 -82.85904 24018 ft 344 kts 314°
2026-05-04 02:08 32.28206 -82.87759 24016 ft 344 kts 314°
2026-05-04 02:08 32.30006 -82.89615 24014 ft 344 kts 314°
2026-05-04 02:09 32.31809 -82.91473 24024 ft 344 kts 314°
2026-05-04 02:09 32.33614 -82.93327 24025 ft 344 kts 314°
2026-05-04 02:09 32.35420 -82.95179 24007 ft 344 kts 314°
2026-05-04 02:09 32.37224 -82.97036 24009 ft 344 kts 314°
2026-05-04 02:10 32.39026 -82.98899 23923 ft 345 kts 314°
2026-05-04 02:10 32.40833 -83.00756 23692 ft 343 kts 315°
2026-05-04 02:10 32.42633 -83.02599 23427 ft 341 kts 315°
2026-05-04 02:10 32.44420 -83.04436 23162 ft 340 kts 315°
2026-05-04 02:11 32.46200 -83.06269 22889 ft 338 kts 316°
2026-05-04 02:11 32.47975 -83.08096 22627 ft 337 kts 316°
2026-05-04 02:11 32.49739 -83.09913 22367 ft 335 kts 316°
2026-05-04 02:11 32.51494 -83.11724 22100 ft 334 kts 316°
2026-05-04 02:12 32.53243 -83.13529 21842 ft 333 kts 316°
2026-05-04 02:12 32.54983 -83.15326 21583 ft 331 kts 316°
2026-05-04 02:12 32.56714 -83.17117 21324 ft 329 kts 316°
2026-05-04 02:12 32.58434 -83.18899 21066 ft 328 kts 316°
2026-05-04 02:13 32.60147 -83.20671 20818 ft 326 kts 316°
2026-05-04 02:13 32.61851 -83.22436 20567 ft 325 kts 316°
2026-05-04 02:13 32.63547 -83.24197 20310 ft 323 kts 316°
2026-05-04 02:13 32.64692 -83.25387 20152 ft 323 kts 316°
2026-05-04 02:14 32.66355 -83.27114 19910 ft 321 kts 316°
2026-05-04 02:14 32.68035 -83.28856 19667 ft 320 kts 316°
2026-05-04 02:14 32.69731 -83.30615 19422 ft 319 kts 316°
2026-05-04 02:14 32.71398 -83.32347 19191 ft 318 kts 316°
2026-05-04 02:15 32.73055 -83.34069 18951 ft 316 kts 316°
2026-05-04 02:15 32.74708 -83.35788 18719 ft 315 kts 316°
2026-05-04 02:15 32.76348 -83.37495 18492 ft 313 kts 316°
2026-05-04 02:15 32.77986 -83.39202 18233 ft 312 kts 316°
2026-05-04 02:16 32.79612 -83.40902 17969 ft 311 kts 316°
2026-05-04 02:16 32.81236 -83.42600 17706 ft 310 kts 316°
2026-05-04 02:16 32.82850 -83.44287 17453 ft 309 kts 316°
2026-05-04 02:16 32.84460 -83.45969 17192 ft 307 kts 316°
2026-05-04 02:17 32.86064 -83.47644 16933 ft 306 kts 316°
2026-05-04 02:17 32.87662 -83.49314 16675 ft 305 kts 316°
2026-05-04 02:17 32.89254 -83.50979 16423 ft 304 kts 316°
2026-05-04 02:17 32.90837 -83.52639 16170 ft 303 kts 316°
2026-05-04 02:18 32.92417 -83.54297 15922 ft 302 kts 317°
2026-05-04 02:18 32.93992 -83.55948 15672 ft 301 kts 317°
2026-05-04 02:18 32.95559 -83.57586 15426 ft 300 kts 317°
2026-05-04 02:18 32.97124 -83.59223 15181 ft 299 kts 317°
2026-05-04 02:19 32.98682 -83.60854 14937 ft 298 kts 317°
2026-05-04 02:19 33.00234 -83.62478 14704 ft 296 kts 317°
2026-05-04 02:19 33.01779 -83.64092 14465 ft 295 kts 317°
2026-05-04 02:19 33.03323 -83.65705 14228 ft 294 kts 317°
2026-05-04 02:20 33.04854 -83.67311 13989 ft 293 kts 317°
2026-05-04 02:20 33.06381 -83.68919 13735 ft 292 kts 317°
2026-05-04 02:20 33.07905 -83.70523 13465 ft 291 kts 318°
2026-05-04 02:20 33.09422 -83.72116 13210 ft 290 kts 318°
2026-05-04 02:21 33.10934 -83.73707 12958 ft 289 kts 318°
2026-05-04 02:21 33.12432 -83.75284 12703 ft 285 kts 318°
2026-05-04 02:21 33.13914 -83.76843 12357 ft 283 kts 318°
2026-05-04 02:21 33.15388 -83.78395 11992 ft 283 kts 318°
2026-05-04 02:22 33.16858 -83.79948 11619 ft 282 kts 318°
2026-05-04 02:22 33.18330 -83.81502 11237 ft 282 kts 318°
2026-05-04 02:22 33.19785 -83.83072 10858 ft 282 kts 316°
2026-05-04 02:22 33.21193 -83.84705 10471 ft 282 kts 315°
2026-05-04 02:23 33.22577 -83.86366 10073 ft 283 kts 315°
2026-05-04 02:23 33.23958 -83.88043 9628 ft 283 kts 315°
2026-05-04 02:23 33.25334 -83.89714 9225 ft 282 kts 315°
2026-05-04 02:23 33.26710 -83.91375 8813 ft 281 kts 315°
2026-05-04 02:24 33.28084 -83.93026 8393 ft 280 kts 315°
2026-05-04 02:24 33.29461 -83.94673 7984 ft 280 kts 315°
2026-05-04 02:24 33.30822 -83.96301 7777 ft 275 kts 315°
2026-05-04 02:24 33.32171 -83.97916 7591 ft 274 kts 315°
2026-05-04 02:25 33.33498 -83.99508 7401 ft 274 kts 315°
2026-05-04 02:25 33.34854 -84.01108 7200 ft 273 kts 319°
2026-05-04 02:25 33.36447 -84.02321 7065 ft 273 kts 337°
2026-05-04 02:25 33.38276 -84.02893 7029 ft 273 kts 354°
2026-05-04 02:26 33.40180 -84.02954 7032 ft 274 kts 359°
2026-05-04 02:26 33.42086 -84.02988 7032 ft 274 kts 359°
2026-05-04 02:26 33.43996 -84.03025 7013 ft 274 kts 358°
2026-05-04 02:26 33.45905 -84.03091 7013 ft 274 kts 353°
2026-05-04 02:27 33.47690 -84.03821 7009 ft 273 kts 329°
2026-05-04 02:27 33.49215 -84.05175 7014 ft 273 kts 318°
2026-05-04 02:27 33.50585 -84.06751 7012 ft 274 kts 314°
2026-05-04 02:27 33.51908 -84.08394 7010 ft 274 kts 314°
2026-05-04 02:28 33.53231 -84.10035 7013 ft 274 kts 314°
2026-05-04 02:28 33.54573 -84.11653 7038 ft 274 kts 315°
2026-05-04 02:28 33.55946 -84.13265 6473 ft 281 kts 316°
2026-05-04 02:28 33.57384 -84.14914 5701 ft 291 kts 316°
2026-05-04 02:29 33.58879 -84.16606 4916 ft 300 kts 316°
2026-05-04 02:29 33.60419 -84.18336 4258 ft 304 kts 316°
2026-05-04 02:29 33.61826 -84.20149 4067 ft 289 kts 304°
2026-05-04 02:29 33.62719 -84.22182 4016 ft 260 kts 289°
2026-05-04 02:30 33.63123 -84.24189 3850 ft 238 kts 275°
2026-05-04 02:30 33.63169 -84.26110 3580 ft 225 kts 270°
2026-05-04 02:30 33.63172 -84.27938 3298 ft 214 kts 270°
2026-05-04 02:30 33.63174 -84.29681 3045 ft 202 kts 270°
2026-05-04 02:31 33.63176 -84.31309 2757 ft 187 kts 270°
2026-05-04 02:31 33.63177 -84.32769 2542 ft 164 kts 270°
2026-05-04 02:31 33.63178 -84.34090 2317 ft 154 kts 271°
2026-05-04 02:31 33.63179 -84.35357 2111 ft 150 kts 271°
2026-05-04 02:32 33.63180 -84.36601 1921 ft 148 kts 271°
2026-05-04 02:32 33.63181 -84.37838 1699 ft 148 kts 271°
2026-05-04 02:32 33.63181 -84.39093 1495 ft 149 kts 271°
2026-05-04 02:32 33.63182 -84.40334 1295 ft 149 kts 271°
2026-05-04 02:33 33.63182 -84.41557 1098 ft 148 kts 271°
2026-05-04 02:33 33.63184 -84.42756 1009 ft 130 kts 271°
2026-05-04 02:33 33.63184 -84.43539 1008 ft 51 kts 270°
2026-05-04 02:33 33.63188 -84.43856 1004 ft 37 kts 270°
2026-05-04 02:34 33.63221 -84.44135 1005 ft 32 kts 292°
2026-05-04 02:34 33.63341 -84.44276 1006 ft 9 kts 27°
2026-05-04 02:34 33.63366 -84.44235 1006 ft 0 kts 58°
2026-05-04 02:35 33.63366 -84.44234 1006 ft 2 kts 58°
2026-05-04 02:35 33.63449 -84.44190 1006 ft 22 kts 357°
2026-05-04 02:35 33.63620 -84.44185 1007 ft 25 kts 20°
2026-05-04 02:36 33.63726 -84.44117 1006 ft 10 kts
2026-05-04 02:36 33.63785 -84.44148 1006 ft 10 kts 295°
2026-05-04 02:36 33.63789 -84.44199 1006 ft 2 kts 270°
2026-05-04 02:36 33.63789 -84.44200 1006 ft 0 kts 270°